Theta_e
328 328 330 331 330 331 331 330 330 329 330 330 331 330 328 328 326 323 323 321 320 320 321 318 318 317 318 318 317 317 314 311 310 310 309 309 309 310 315 312 313 312 310 307 304 298 298 296 297 301 302 303 304 303 305 304 302 300 299 299 300 300 301
328 329 330 330 329 330 328 327 328 327 327 327 328 327 325 324 324 321 320 319 318 318 320 318 317 316 315 314 314 314 313 313 312 311 309 307 308 309 309 309 309 308 307 307 308 304 300 296 296 297 298 302 304 302 303 303 303 302 300 300 303 300 304
329 329 329 328 327 327 326 324 324 324 325 325 324 323 321 321 320 320 319 318 318 318 319 316 316 315 314 313 313 313 314 312 310 310 309 306 307 306 308 308 307 304 305 305 304 302 302 299 297 296 298 299 298 298 301 299 299 298 298 299 299 299 299
328 329 329 327 326 325 324 323 323 322 322 322 322 320 319 318 318 319 317 317 319 320 318 316 315 315 313 313 313 313 312 311 310 309 309 307 307 306 305 305 305 305 303 302 304 303 301 299 298 298 299 302 297 296 298 298 298 297 298 299 299 299 299
329 329 329 327 327 325 324 323 322 322 321 320 319 318 318 318 318 317 318 316 316 315 315 316 315 314 314 314 313 313 312 311 310 309 307 306 306 305 304 303 303 304 304 304 304 304 303 300 301 299 299 300 295 295 298 297 297 297 297 298 299 299 298
329 329 328 327 326 325 324 322 322 321 319 318 317 317 317 317 317 314 314 314 314 316 317 317 316 315 314 312 312 312 310 308 307 307 306 305 304 303 303 303 303 303 303 303 303 302 302 302 302 300 300 296 292 293 294 295 296 297 297 298 299 298 298
328 328 328 327 326 326 325 323 322 321 319 318 317 317 318 317 316 316 314 314 315 316 316 315 315 314 313 312 311 310 309 307 307 306 305 304 303 303 303 302 302 303 302 303 301 301 301 301 300 301 299 296 292 292 295 293 296 297 297 298 298 299 298
328 328 327 327 326 325 324 323 322 321 319 318 317 317 317 315 314 313 314 314 314 315 315 315 316 314 314 312 311 310 308 307 306 306 304 304 304 303 303 303 304 303 302 302 301 302 301 301 301 299 295 293 292 293 294 294 294 295 296 299 299 299 299
328 327 326 326 326 325 324 323 321 320 318 317 317 316 315 314 313 314 314 315 315 315 315 314 314 313 312 310 309 309 308 309 305 305 304 304 303 303 302 302 303 302 303 303 302 301 301 301 301 300 295 295 293 290 293 292 293 295 297 298 297 299 298
326 326 326 325 325 324 323 322 321 319 318 317 316 316 314 314 314 314 314 314 314 314 314 314 313 312 311 310 308 308 307 306 306 303 303 303 302 302 302 302 301 301 301 303 302 302 301 301 301 300 299 295 295 293 289 289 292 292 296 297 297 298 298
326 326 326 325 325 324 323 323 321 318 317 317 316 316 314 313 314 317 314 314 313 313 313 312 312 311 310 309 308 307 306 306 305 305 305 303 303 304 304 302 301 301 302 301 301 302 301 300 300 301 300 299 298 296 290 289 292 294 295 295 297 298 297
326 326 326 325 325 324 323 322 320 318 317 316 316 315 313 313 313 313 314 313 312 312 312 311 311 310 309 308 307 306 306 305 304 303 303 303 303 303 302 302 301 301 301 300 301 301 302 301 300 299 299 300 299 298 295 291 290 295 297 296 296 299 298
326 326 325 324 324 324 323 322 319 317 316 316 314 314 313 312 312 313 313 312 311 311 311 311 310 309 308 307 306 305 305 304 304 303 303 303 304 302 302 301 301 301 300 300 300 300 300 301 301 300 300 299 298 298 297 293 292 293 296 298 297 298 297
325 324 324 323 324 323 322 321 319 317 316 314 314 313 312 312 312 313 312 312 311 310 309 309 309 308 307 306 305 305 304 304 303 302 303 302 302 302 302 301 301 300 300 300 299 300 300 299 299 300 300 298 298 297 296 293 292 293 294 295 296 297 296
325 324 322 322 322 321 320 319 317 316 314 313 313 312 311 311 311 312 312 311 310 310 310 309 308 307 306 305 305 306 304 303 302 301 301 301 301 302 301 300 300 300 300 300 299 299 299 299 299 298 297 298 296 298 296 294 293 292 292 294 294 295 295
325 323 322 322 321 320 319 317 316 315 313 313 312 311 311 311 311 312 311 310 310 309 309 308 307 306 305 305 304 303 303 302 301 301 301 300 300 300 300 301 300 300 301 299 299 298 299 298 298 297 297 297 296 297 298 296 293 292 292 293 294 293 293
323 322 321 321 319 318 317 315 316 314 313 313 311 311 310 310 311 311 310 310 309 308 308 307 306 306 305 304 303 303 302 302 301 300 301 300 301 301 300 300 299 299 299 298 297 297 297 297 296 296 296 296 296 296 296 295 295 293 292 292 292 292 294
323 321 321 320 318 317 315 314 315 314 313 312 311 310 310 309 309 310 309 308 307 307 307 306 305 305 304 303 303 303 302 301 300 301 301 301 305 300 301 299 299 299 298 297 296 296 296 295 295 296 295 295 295 295 295 295 295 294 292 290 291 292 292
322 321 320 319 318 316 315 314 314 313 313 311 310 310 309 308 309 308 307 307 306 306 306 305 305 304 303 303 303 302 302 301 301 301 301 301 300 301 301 300 299 300 299 298 296 295 295 294 295 294 294 294 293 293 293 293 294 294 292 290 289 291 290
322 320 319 318 317 316 314 314 314 313 313 312 310 309 307 307 308 307 306 306 306 306 305 304 304 303 303 303 302 302 301 301 301 300 299 300 299 299 300 300 299 299 299 298 296 295 294 294 295 294 295 293 292 292 292 292 293 293 292 290 289 289 289
322 321 319 318 317 315 314 313 313 313 313 311 310 308 307 307 307 307 306 306 306 305 304 304 303 303 303 302 302 301 301 300 300 299 297 297 297 297 297 298 298 298 298 297 296 294 294 293 293 293 293 293 292 291 291 292 292 292 291 290 289 288 288
322 320 318 317 316 314 313 313 313 312 311 310 310 308 307 307 306 305 305 305 305 305 304 304 304 303 302 302 301 301 301 300 298 297 296 295 295 295 294 295 295 296 301 304 303 300 299 298 294 292 293 292 291 290 289 290 292 291 291 291 290 288 287
320 319 317 316 315 314 313 313 312 311 310 310 309 308 307 306 306 305 305 305 304 305 304 304 308 306 305 303 301 301 301 299 297 296 295 293 293 293 294 296 301 308 309 308 306 301 298 298 299 294 292 291 290 289 288 289 290 290 291 289 290 288 287
319 318 317 316 315 314 313 312 311 311 310 309 308 308 306 305 304 305 305 304 304 304 304 305 303 298 299 302 303 300 299 297 296 295 294 292 292 295 296 297 300 306 306 305 299 298 297 297 297 298 300 300 296 290 288 287 287 288 291 289 289 287 287
318 317 316 315 315 314 312 311 311 310 309 308 308 307 305 305 304 304 304 304 303 303 303 305 297 297 297 298 303 301 299 297 296 294 292 292 294 295 296 298 298 298 294 293 294 294 295 294 293 293 293 293 293 294 295 291 291 286 287 288 288 288 288
318 317 316 315 315 313 311 311 310 309 308 308 307 306 305 304 303 303 303 303 302 303 302 299 296 297 297 297 298 301 298 297 295 293 292 292 292 293 294 295 294 294 296 302 299 292 293 295 296 295 296 296 295 292 290 290 294 292 287 288 289 287 288
317 316 316 315 315 312 311 310 310 310 309 308 306 305 303 303 303 303 303 302 301 301 300 298 296 296 296 296 296 298 298 296 295 293 292 291 292 293 294 293 293 295 298 299 293 293 294 294 294 295 294 292 293 298 296 293 292 292 295 292 289 289 290
317 316 316 315 314 313 311 310 310 309 308 307 306 304 303 302 302 303 302 301 299 298 300 296 295 296 295 296 296 298 298 297 295 293 292 292 293 294 296 297 296 297 299 296 297 297 297 297 297 298 295 293 292 291 291 292 292 292 293 292 291 291 292
317 316 316 315 314 313 312 311 310 309 308 307 306 304 302 302 302 302 301 299 299 297 296 294 295 295 295 295 297 302 299 297 295 294 293 293 294 295 297 298 298 297 295 294 299 295 296 295 294 295 295 294 294 293 292 297 295 295 295 292 292 292 293
316 316 316 315 314 313 311 311 311 310 308 306 304 303 302 302 302 301 299 299 298 296 295 294 294 295 295 294 298 301 300 298 298 296 295 295 295 298 298 296 296 295 292 291 293 290 292 295 295 295 295 294 294 293 293 294 296 294 294 293 293 293 293
316 316 315 314 314 313 312 312 311 310 308 306 304 303 303 303 302 301 299 298 298 296 295 295 294 295 295 296 300 301 301 299 298 297 297 297 297 297 297 305 301 294 291 290 291 289 291 296 296 297 294 292 291 288 288 289 290 291 293 293 293 292 292
316 316 315 315 314 313 312 311 310 310 309 307 305 304 304 302 300 299 299 298 302 298 295 295 293 294 295 296 300 301 300 299 298 298 298 298 299 300 301 306 304 297 293 292 289 289 291 296 297 297 293 291 290 288 287 287 286 287 288 289 289 292 292
316 316 315 314 314 313 312 310 309 309 308 307 306 305 304 303 301 300 299 298 299 297 296 296 295 293 295 296 298 300 299 299 298 297 298 299 299 298 300 301 300 293 291 290 288 289 290 293 296 296 292 290 289 289 288 284 290 288 288 289 287 290 290
315 316 316 315 314 313 311 310 309 308 307 306 305 304 304 303 301 299 298 298 297 297 298 297 295 293 294 295 296 298 299 299 299 299 299 299 298 295 294 296 296 293 290 289 289 289 290 291 294 295 291 289 288 288 288 285 290 295 288 291 290 291 292
316 316 316 315 313 312 311 311 309 309 307 305 304 303 302 301 300 298 297 298 298 298 301 300 297 293 293 294 295 296 299 299 299 300 300 298 296 294 293 293 293 292 289 288 288 289 289 290 291 297 290 289 289 288 288 290 287 288 289 290 289 290 290
315 316 315 314 313 311 311 310 309 308 307 305 304 302 301 300 299 298 298 299 299 299 300 300 297 296 293 292 293 295 295 296 295 301 299 297 296 296 295 293 294 294 288 289 288 289 289 289 292 293 289 288 288 288 290 287 287 287 287 288 289 290 290
315 315 314 313 312 311 309 309 308 307 307 305 303 302 300 300 300 299 299 299 299 298 299 299 296 295 294 291 291 292 292 293 295 300 300 297 296 295 295 295 294 291 289 289 288 288 288 289 289 290 288 288 288 289 289 287 286 287 288 287 288 289 291
Wind_Speed
7 7 6 6 4 6 6 5 4 3 3 3 4 3 3 3 4 4 5 5 6 4 5 5 6 5 5 4 3 5 5 5 7 9 5 4 6 2 1 4 5 6 6 2 6 8 6 7 2 2 1 2 2 2 2 4 4 5 5 4 6 5 5
6 7 5 5 6 5 7 4 5 4 3 3 3 4 4 5 5 5 5 5 5 5 5 5 4 4 5 6 6 6 6 4 4 4 5 4 4 5 6 4 6 5 3 3 5 4 5 5 1 3 2 1 1 2 4 4 3 4 3 5 6 5 5
6 6 6 6 6 6 6 5 5 5 5 4 4 4 5 5 5 5 5 5 5 5 5 5 5 5 4 5 5 6 6 7 3 5 6 5 3 2 2 6 6 4 4 3 2 4 4 3 8 5 4 3 3 3 4 5 4 2 2 6 7 6 7
9 10 8 7 6 6 7 6 5 5 5 5 5 5 5 5 5 5 5 5 4 4 5 5 5 5 5 6 5 5 6 7 6 7 6 4 5 5 4 4 5 6 7 5 7 4 4 3 5 3 1 2 4 8 2 3 3 1 3 6 7 7 7
12 10 11 11 9 9 8 7 5 5 5 5 5 6 5 5 6 5 5 5 5 5 5 5 4 4 5 5 5 5 5 5 6 7 6 6 6 6 5 5 5 5 4 6 4 5 7 6 9 7 5 2 4 4 2 1 1 2 4 6 6 5 6
11 11 11 10 9 9 8 8 7 6 6 6 5 6 4 5 6 6 5 5 5 5 7 6 5 4 5 6 6 6 5 5 6 7 7 5 6 7 6 4 5 5 5 3 4 6 5 7 9 7 1 3 7 4 1 1 1 1 2 5 6 6 5
10 10 9 10 9 8 8 8 7 7 6 6 6 6 5 5 5 5 6 5 5 5 6 5 5 4 5 6 6 7 6 5 6 7 8 6 7 5 5 6 6 6 5 3 4 6 7 8 7 9 6 4 3 3 2 4 3 2 3 3 5 5 5
9 9 8 8 9 9 7 7 6 6 6 5 6 5 4 5 5 6 6 6 5 5 5 6 4 4 5 6 7 7 6 6 7 7 6 7 8 6 5 6 6 6 5 4 6 5 4 4 8 8 9 10 4 4 3 2 2 4 1 2 4 6 5
8 7 7 6 6 7 7 7 7 6 5 6 5 5 4 6 6 6 6 7 5 6 5 7 5 5 5 7 6 7 7 5 8 8 6 7 7 6 6 4 7 5 5 6 6 6 6 5 6 5 7 9 10 4 1 3 3 3 2 3 2 4 5
10 10 10 9 8 7 7 6 6 6 6 6 6 5 6 4 5 6 7 7 6 6 6 6 6 5 5 6 6 7 7 7 8 6 6 7 5 5 5 6 6 6 6 5 6 6 6 6 6 6 4 8 8 9 3 2 1 2 3 2 2 4 4
9 9 9 10 8 8 7 6 6 6 6 6 6 5 6 6 6 5 7 7 5 6 6 6 7 6 6 6 6 6 6 7 7 5 5 6 5 5 6 6 5 7 5 7 6 5 6 6 7 7 6 4 5 8 5 5 2 0 1 2 1 3 4
8 8 8 8 8 9 9 8 7 6 6 6 7 7 6 6 6 6 6 7 5 6 5 6 6 6 6 7 6 6 6 7 7 6 4 5 4 5 6 7 6 7 6 7 6 6 5 6 7 6 6 6 5 6 7 6 4 0 1 2 1 1 1
9 9 9 10 9 9 9 9 8 7 7 6 6 6 6 6 6 7 5 6 6 5 5 4 5 6 6 6 6 7 6 7 7 6 5 3 3 5 6 6 5 6 5 6 6 6 6 5 5 6 6 7 6 5 6 6 7 4 0 1 0 2 2
9 8 9 8 8 8 7 8 7 7 6 6 7 7 7 7 6 8 7 7 7 6 6 5 4 5 6 7 6 7 6 7 7 4 5 5 4 5 6 7 6 5 4 7 6 6 6 5 5 6 5 6 6 3 5 5 5 3 2 1 3 2 3
9 8 9 8 8 8 8 8 7 7 7 6 7 7 7 6 6 7 7 7 7 6 6 6 5 6 7 8 7 5 6 6 6 5 5 5 4 4 6 8 6 5 5 6 6 6 5 5 5 6 5 6 6 6 2 3 2 2 2 3 5 3 4
10 10 10 8 9 8 8 7 7 9 8 7 6 7 7 7 7 7 7 7 7 6 6 6 5 6 6 7 8 6 6 6 6 6 6 5 6 5 7 7 6 5 5 8 6 6 6 5 5 6 5 5 6 5 4 3 2 2 4 2 1 2 4
11 10 10 9 10 9 8 7 7 8 8 7 8 6 7 7 6 7 7 7 7 6 6 5 5 6 7 7 7 7 6 6 5 5 6 6 6 6 7 7 5 6 6 7 6 6 5 5 6 5 6 4 6 6 4 4 3 2 2 4 3 3 2
11 11 10 9 11 10 8 8 7 9 8 8 7 7 6 6 6 7 7 7 7 7 6 6 7 6 5 6 7 7 7 6 6 5 5 5 6 6 6 6 6 6 7 8 5 6 6 6 4 6 5 5 6 4 5 6 5 5 5 4 1 1 1
12 12 11 10 11 10 9 8 8 8 9 9 7 7 7 6 6 7 6 6 6 6 6 6 7 7 7 6 6 7 7 7 6 5 5 4 5 5 7 6 5 6 7 7 6 5 6 6 5 5 5 5 5 5 6 5 5 6 6 4 3 4 4
11 11 11 10 9 9 9 8 9 9 8 9 9 7 6 7 6 7 6 6 6 7 6 6 6 7 7 7 7 7 7 7 6 5 4 5 5 6 6 6 6 6 7 7 6 6 6 5 6 5 5 5 4 6 6 5 5 6 5 4 3 2 3
10 10 9 10 10 9 8 8 8 8 8 9 8 8 8 8 6 6 6 6 6 6 6 6 6 7 7 7 7 7 7 7 7 6 5 5 5 6 6 5 5 6 7 6 7 6 7 7 6 6 4 6 6 7 5 4 6 6 6 4 4 2 2
9 9 10 10 10 9 9 8 8 8 8 7 7 7 7 8 8 7 6 6 7 6 7 7 6 7 8 7 7 7 8 8 8 8 6 5 5 6 5 5 5 5 7 8 9 8 8 8 7 8 5 6 6 7 5 5 5 6 5 5 3 2 4
10 10 11 11 10 10 9 9 9 8 8 8 7 8 8 7 8 8 7 7 6 6 6 5 7 11 9 7 7 7 7 8 8 8 8 7 5 5 5 5 6 11 12 12 10 10 10 9 9 9 8 7 7 6 6 5 5 4 4 4 1 1 3
10 11 11 10 10 10 9 9 8 8 8 8 8 8 8 8 7 7 8 8 7 6 6 5 11 12 12 12 8 8 9 8 7 8 7 8 7 7 5 5 5 8 10 10 9 11 10 10 10 10 10 8 7 8 7 5 3 3 2 1 1 1 1
11 11 11 11 11 10 9 9 9 9 8 8 7 7 8 8 7 7 7 7 7 6 5 8 13 13 13 13 11 8 8 8 7 7 7 8 7 7 7 6 5 4 5 7 7 6 8 9 9 10 11 10 8 7 5 5 4 2 3 2 1 1 1
12 11 11 11 10 9 9 9 9 9 10 8 7 8 8 8 8 7 8 8 7 6 5 10 13 13 13 13 13 10 7 8 8 7 7 7 7 6 6 6 6 4 5 11 7 5 5 5 5 7 8 8 7 7 5 4 3 2 5 3 1 2 4
12 11 11 11 10 10 10 10 10 9 8 8 8 8 8 9 8 8 8 8 7 5 5 9 13 14 13 13 13 11 7 8 7 8 7 7 6 7 7 7 7 7 5 5 4 5 4 5 4 3 3 3 3 4 5 6 6 6 5 4 3 2 3
12 11 11 11 11 11 11 10 10 9 9 10 10 10 10 9 8 7 7 7 7 6 5 11 13 14 14 14 14 11 7 7 7 6 6 6 7 7 6 6 6 7 6 5 4 5 4 4 3 2 3 3 3 3 4 4 4 4 4 4 5 6 6
12 11 12 11 12 12 11 11 12 9 9 8 7 6 5 6 7 8 7 8 7 6 4 11 13 14 14 14 13 8 7 7 6 5 5 5 5 4 4 4 5 5 5 5 5 8 7 5 3 2 1 1 0 2 3 4 5 4 4 4 5 6 6
12 12 12 12 12 12 12 11 10 9 9 8 7 7 7 6 7 9 9 8 9 7 6 8 12 14 14 15 10 7 7 6 6 6 6 6 7 6 4 4 5 5 5 5 6 8 9 7 3 2 1 1 2 3 1 1 3 6 8 8 9 10 11
12 12 11 12 13 11 11 9 10 9 10 10 8 7 6 6 6 8 10 10 11 11 8 9 13 14 15 15 11 8 7 7 6 7 6 6 3 4 4 9 7 6 6 5 7 8 8 7 4 3 4 4 4 4 1 2 3 3 5 6 6 8 9
12 12 12 12 12 12 11 10 8 8 8 8 8 7 7 7 5 5 6 8 11 12 9 8 10 10 13 14 10 7 7 7 7 6 6 5 4 4 5 7 10 8 7 7 10 8 8 6 5 4 5 5 4 4 2 1 1 1 3 4 2 5 6
12 12 12 10 9 8 7 7 8 8 7 7 7 7 7 7 8 6 6 7 8 9 10 7 7 10 2 9 11 8 8 8 9 10 9 8 7 7 7 7 8 11 11 11 11 10 9 8 6 5 5 5 5 4 4 2 1 1 0 0 3 2 3
12 11 10 9 7 7 7 8 8 8 8 7 7 7 8 7 7 6 5 5 7 7 8 9 7 12 10 12 15 12 7 8 9 9 8 9 9 7 6 6 6 8 12 12 11 10 8 8 7 5 5 4 4 3 5 2 1 1 1 1 2 4 5
10 10 9 9 8 7 6 7 8 9 7 8 9 9 8 8 8 7 6 5 6 8 6 12 11 10 9 8 12 13 8 7 9 10 9 7 6 6 6 6 6 9 12 12 11 10 9 8 8 4 4 5 7 8 2 1 2 1 2 3 4 5 5
9 7 9 9 8 8 7 7 6 7 8 8 9 9 8 7 7 6 5 5 5 6 5 6 12 10 10 8 6 8 9 8 9 9 10 10 8 7 6 6 6 11 13 12 11 11 10 8 6 4 6 7 6 6 3 1 1 2 3 3 3 4 5
9 8 9 9 8 8 8 7 7 7 8 9 9 8 7 7 7 8 8 7 4 3 3 3 6 10 9 9 6 8 7 7 8 6 6 6 5 5 5 5 6 11 12 12 12 12 10 8 5 5 6 7 7 5 2 1 1 1 1 3 3 3 4
Wind_Direction
157 156 157 151 135 135 137 143 142 155 151 148 149 144 128 118 122 111 108 106 106 108 107 105 115 118 105 88 95 114 114 128 141 143 159 170 152 149 48 86 84 107 129 70 145 157 144 148 240 295 256 312 3 339 40 38 54 85 81 69 62 36 16
145 147 144 139 134 135 128 129 137 143 137 131 122 118 115 119 119 119 112 110 109 109 109 107 105 109 113 117 114 110 115 107 118 128 121 160 146 144 120 70 93 101 76 76 111 97 136 124 128 202 228 341 10 346 20 65 84 78 80 82 69 43 24
143 137 143 141 136 136 130 129 130 133 138 121 104 110 107 108 112 112 111 111 114 112 106 113 112 104 103 103 114 120 119 107 93 104 117 122 105 93 92 144 127 105 87 76 67 94 70 88 153 192 202 167 119 19 72 97 95 87 72 71 61 36 28
154 148 147 144 141 137 137 138 136 135 129 124 114 103 108 111 105 105 109 108 103 103 104 104 108 113 107 107 108 105 109 116 114 106 98 89 99 84 72 91 125 147 164 166 173 166 139 131 100 141 135 129 137 101 67 111 122 135 79 69 65 38 33
157 160 159 158 161 155 151 145 141 123 116 113 113 112 110 111 110 105 105 106 108 106 94 84 95 105 111 107 101 102 101 102 110 104 103 101 94 90 80 88 98 107 91 112 154 145 136 146 138 153 154 140 77 85 145 80 57 87 64 65 62 48 40
163 162 162 160 163 158 156 149 150 141 133 122 130 122 125 121 118 114 115 115 107 101 113 122 116 110 110 104 105 102 104 106 112 112 106 105 105 103 107 84 94 85 86 82 103 114 87 116 133 130 152 116 132 144 173 106 125 345 61 65 61 38 42
163 162 163 161 163 159 158 157 154 149 143 142 142 138 141 124 112 120 119 111 107 117 116 112 107 112 113 110 108 105 101 103 101 99 102 102 93 97 104 96 81 86 83 83 103 99 124 120 131 139 130 58 84 106 4 34 333 61 360 38 52 40 34
160 162 163 163 158 155 156 148 143 135 133 141 138 137 129 121 122 121 120 113 119 112 111 99 101 106 103 101 101 103 98 102 99 101 100 105 102 103 95 102 100 78 83 86 93 91 108 116 138 149 136 126 68 41 60 2 359 63 146 11 58 38 27
155 150 146 148 150 151 148 146 142 132 128 129 130 127 133 130 131 122 109 116 118 117 118 123 118 109 109 105 104 105 102 101 101 98 105 101 104 105 105 103 88 84 80 82 82 88 81 93 104 112 132 127 131 119 50 47 11 19 36 65 348 43 28
156 157 157 156 151 142 137 136 135 128 125 131 134 133 130 129 113 120 124 118 115 122 121 114 111 113 104 100 108 107 105 99 97 103 106 103 111 111 101 95 101 97 86 83 80 79 86 82 84 95 113 139 143 133 142 87 353 69 353 46 85 18 25
156 153 150 149 145 138 135 130 125 130 142 144 137 137 132 129 134 130 121 121 129 123 132 128 123 118 108 103 103 101 107 103 101 96 99 110 117 112 106 92 91 90 86 85 87 88 83 88 84 83 87 108 139 135 152 128 122 185 352 339 55 53 8
148 147 144 141 144 144 146 145 145 140 134 140 137 136 133 131 126 123 120 124 127 128 125 120 122 117 119 116 110 108 101 104 108 111 114 116 126 111 106 99 91 88 87 92 90 85 84 82 88 88 87 85 74 104 118 124 109 286 117 38 324 353 15
148 148 148 147 150 151 151 149 145 144 149 143 139 136 137 138 136 120 125 125 124 121 116 118 121 124 117 112 116 110 109 110 113 117 115 101 111 105 103 98 88 93 92 92 88 88 86 81 85 86 83 80 77 85 98 101 107 106 231 79 119 345 18
148 145 145 147 145 147 146 147 151 143 136 146 143 140 142 143 137 134 143 135 134 137 128 131 139 131 122 118 111 114 112 113 117 118 114 101 93 100 99 97 90 86 93 89 89 85 79 77 73 75 76 79 77 68 97 102 105 86 7 347 59 14 359
147 146 144 144 142 143 148 152 148 142 147 149 146 143 143 143 140 140 139 138 137 136 135 144 146 134 129 123 119 117 119 118 118 122 116 115 106 104 105 99 91 86 85 95 89 82 91 80 83 76 63 77 69 51 52 104 111 119 86 343 27 349 24
148 148 147 148 147 149 150 149 151 149 149 149 146 145 145 145 145 141 140 141 138 137 142 143 142 132 131 130 128 124 123 123 129 132 127 128 123 117 100 99 102 101 96 85 82 87 85 84 78 77 65 64 70 60 46 83 115 106 107 58 320 22 16
149 151 152 153 151 153 151 151 152 149 149 148 146 147 147 146 143 143 142 141 143 143 143 143 139 137 139 136 132 131 127 128 130 136 137 135 129 115 115 107 109 106 101 95 92 87 83 81 77 77 71 60 75 67 58 61 58 129 136 109 7 51 345
154 155 153 153 152 150 152 150 153 152 150 150 150 146 146 142 143 145 146 149 149 150 153 149 143 140 139 137 134 133 133 134 139 141 143 141 130 123 119 122 129 112 106 103 95 93 95 84 79 79 76 68 77 78 64 62 63 81 98 99 94 338 350
159 157 151 151 152 152 153 154 154 156 155 151 150 151 149 154 150 148 149 153 152 154 153 152 147 147 146 141 136 136 136 136 141 142 139 125 118 122 127 128 126 117 111 113 116 109 99 101 91 86 83 75 79 73 69 59 71 82 88 86 81 25 13
161 154 149 148 149 153 156 158 157 157 158 153 153 154 156 150 152 149 155 152 157 157 155 151 149 151 150 147 144 142 138 134 131 128 122 118 114 117 122 122 121 118 117 123 128 125 117 105 103 96 100 99 82 81 74 67 76 80 84 81 42 67 13
156 148 144 146 153 156 157 160 160 155 154 157 160 161 161 155 156 154 156 158 158 155 154 154 155 156 154 151 146 143 141 134 126 121 117 113 116 116 120 122 120 124 130 136 135 141 131 126 120 105 111 101 94 87 82 81 70 73 75 68 62 357 352
150 143 144 149 155 161 163 162 159 156 158 156 156 157 155 152 153 156 156 157 159 160 160 164 164 160 153 153 147 145 140 134 132 129 122 115 113 114 114 123 130 137 144 151 152 153 149 146 130 121 125 113 101 97 90 77 85 83 71 74 28 3 7
151 148 151 158 162 163 164 165 161 160 161 156 153 155 156 157 158 160 160 162 162 164 168 167 170 162 157 154 150 141 134 136 135 133 129 123 116 125 136 142 155 151 145 145 142 139 140 137 129 127 137 119 112 99 100 93 87 99 99 85 68 0 5
150 156 158 159 161 163 166 165 162 162 159 157 157 160 157 161 165 165 164 165 166 169 169 173 166 159 157 152 146 142 140 140 137 134 136 137 144 148 157 154 142 137 135 129 130 133 124 116 111 111 110 118 130 133 120 104 129 149 132 161 187 158 207
155 158 157 162 164 165 163 162 163 164 161 161 162 155 162 168 166 166 162 165 166 168 172 170 162 162 157 154 147 143 140 140 141 142 146 148 156 160 151 134 131 128 137 140 139 127 120 118 118 115 112 109 107 99 130 145 152 146 163 159 186 229 197
157 159 161 161 163 162 164 165 165 163 169 169 158 163 169 163 168 166 162 164 169 170 170 167 163 160 158 153 144 135 141 140 143 154 157 159 162 149 139 140 139 149 163 150 141 143 139 133 136 129 121 120 128 142 137 132 142 157 164 151 186 235 201
159 161 158 160 162 164 168 172 171 170 164 161 166 168 164 168 164 164 163 160 160 164 160 171 163 159 158 152 144 139 146 149 152 159 164 160 150 153 158 153 154 160 170 148 146 152 151 145 153 143 137 134 149 168 183 196 191 178 185 176 174 226 243
159 159 160 162 165 169 173 171 171 171 167 171 172 173 172 167 165 158 156 151 148 155 168 166 166 161 160 154 149 141 149 151 153 160 162 157 159 164 161 164 162 160 157 149 161 159 147 147 135 151 152 157 177 206 218 225 218 195 188 195 200 221 259
159 160 162 166 170 173 176 175 174 172 168 172 174 165 162 147 148 151 150 147 142 147 163 172 168 164 161 159 150 143 148 152 153 151 154 157 160 165 170 166 156 153 150 154 172 169 155 140 125 122 58 17 33 192 214 234 229 212 199 191 198 217 236
159 162 166 170 174 175 176 178 176 167 164 165 163 165 166 161 155 150 153 154 149 152 163 182 179 166 164 160 150 144 152 150 151 152 155 166 175 178 179 168 160 154 152 163 173 168 157 134 117 99 101 90 109 114 134 311 258 244 238 226 232 241 255
161 165 170 177 178 178 178 175 173 169 166 163 165 171 155 139 151 160 160 162 160 158 171 182 180 174 163 164 155 153 156 154 154 152 150 146 175 200 199 189 169 164 165 174 175 177 166 141 134 139 143 119 104 101 75 338 359 328 333 292 273 257 243
163 167 176 183 180 177 177 175 168 165 164 162 160 148 136 138 144 160 166 158 161 154 163 179 180 172 162 162 156 147 143 149 150 140 137 143 164 154 204 203 184 176 174 170 171 181 183 165 148 153 155 127 141 158 204 205 253 8 349 4 332 345 353
168 173 179 180 177 171 158 153 158 160 158 155 146 143 137 140 149 168 169 159 162 159 160 166 145 115 146 156 147 149 160 154 155 158 168 161 164 192 192 184 189 178 169 166 175 182 191 177 152 162 138 138 149 199 194 185 191 126 149 178 280 286 281
170 173 172 172 164 158 159 159 156 156 154 146 137 132 135 144 153 157 158 165 163 174 164 152 161 153 179 180 166 163 174 163 164 155 155 160 181 190 188 185 179 184 175 175 176 180 181 181 162 158 162 161 195 168 143 132 157 119 66 7 335 329 324
168 166 165 161 160 157 152 154 160 157 149 146 140 132 139 149 149 153 160 160 168 176 187 169 155 177 183 202 173 169 163 175 164 154 159 172 181 185 187 182 186 192 185 179 179 176 172 170 174 157 184 168 139 131 152 149 152 114 71 34 3 344 339
164 163 162 161 153 149 147 149 143 142 144 139 136 140 144 139 139 141 150 175 187 184 179 184 164 172 185 191 180 164 164 158 172 157 161 183 190 194 188 186 195 187 187 182 180 177 181 177 168 182 166 145 155 161 143 114 100 65 38 31 14 337 321
162 155 153 149 142 141 143 139 140 149 152 152 151 150 152 156 156 159 172 182 183 183 196 191 194 179 166 168 131 120 129 149 165 177 167 175 187 193 188 194 198 188 188 186 186 182 178 172 181 174 167 173 167 170 144 124 81 85 55 12 354 325 305